World > North America > United States > Utah > College Ward

Hourly College Ward, UT Regional Weather

Feedback E-mail the Weather

Quick WX

College Ward, UT Weather Maps

°F °C°F °C
College Ward Weather Map
UTC Time: 8/10/2022, 21:27
Your Time:

College Ward, UT Regional Weather

Expires:202208102200;;812520
ASUS45 KSLC 102110
RWRUT 

UTAH REGIONAL WEATHER ROUNDUP
NATIONAL WEATHER SERVICE SALT LAKE CITY UT
300 PM MDT WED AUG 10 2022


UTZ101>105-107>111-102200-

NORTHERN UTAH
  
CITY           SKY/WX    TMP DP  RH WIND       PRES   REMARKS
BRIGHAM CITY   MOSUNNY   89  47  24 MISG      30.18F                  
HILL AFB       PTSUNNY   91  52  26 NW10      30.18F                  
LOGAN          MOSUNNY   88  54  31 N9        30.19F                  
OGDEN          PTSUNNY   93  51  23 NW6       30.17F HX  90           
SALT LAKE CITY PTSUNNY   94  54  25 NW5       30.14F HX  92           
TOOELE VALLEY  PTSUNNY   86  57  37 N5        30.18F                  
WENDOVER       PTSUNNY   85  57  38 W20G29    30.19F                  
HEBER CITY       N/A     84  45  24 CALM      30.26F                  
WEST JORDAN    MOSUNNY   91  62  37 NW9       30.18F HX  91           

$$


SKY/WX - Weather  TMP - Temperature  DP - Dew Point  RH - Humidity
WIND - Wind Direction/Speed PRES - Barometric Pressure VSB - Visibility
WCI - Wind Chill Index E13G22 Wind - East Wind 13 mph/Gusts of 22 mph

Trending Headlines

College Ward Radar Loop



College Ward Quick Facts


National Two Day Weather Forecast


E-mail the College Ward Weather Forecast

Voice your opinion or tell us about page issues...